Flag for Ireland Weather past 2 weeks in Cork, Ireland

Now
72 °F

Partly sunny.


Feels Like: 75 °F
Forecast: 61 / 76 °F
Wind: 3 mph from Southeast

Location: Cork Airport

Current Time: Jul 24, 2014 at 6:52:31 PM

Latest Report: Jul 24, 2014 at 6:00 PM


Visibility: 11 mi

Pressure: 30.07 "Hg

Humidity: 69%

Dew point: 61 °F

Location of CorkLocation

Historic Weather in Cork — Graph

°F

Cork temperature yesterday

Maximum temperature yesterday: 71 °F (at 4:00 PM)
Minimum temperature yesterday: 61 °F (at 4:00 AM)
Average temperature yesterday: 65 °F

Past Weeks' High & Low Weather Summary

 TemperatureHumidityPressure
High75 °F (Jul 24, 1:00 PM)100% (Jul 11, 11:00 AM)30.30 "Hg (Jul 11, 11:00 AM)
Low52 °F (Jul 11, 11:00 AM)51% (Jul 13, 3:00 PM)29.75 "Hg (Jul 19, 5:00 AM)
Average62 °F87%30.03 "Hg
* Reported Jul 9 5:00 PM — Jul 24 5:00 PM, Cork, Weather by CustomWeather, © 2014

Note: Actual official high and low records may vary slightly from our data, if they occured in-between our weather recording intervals... More about our weather records

Advertising

Cork weather history for previous 24 hours

 ConditionsComfort  
Time TempWeatherWind HumidityBarometerVisibility
5:00 PM
Jul 24
73 °FPartly sunny.5 mph70%30.06 "Hg19 mi
4:00 PM74 °FPartly sunny.5 mph71%30.06 "Hg16 mi
3:00 PM72 °FOvercast.6 mph75%30.06 "Hg22 mi
2:00 PM75 °FPartly sunny.2 mph65%30.07 "Hg22 mi
1:00 PM75 °FOvercast.3 mph66%30.07 "Hg22 mi
12:00 PM71 °FPartly sunny.5 mph80%30.08 "Hg16 mi
11:00 AM68 °FPartly sunny.7 mph87%30.08 "Hg12 mi
10:00 AM67 °FLow clouds.8 mph90%30.08 "Hg12 mi
9:00 AM64 °FLow clouds.7 mph96%30.08 "Hg12 mi
8:00 AM63 °FFog.8 mph98%30.08 "Hg6 mi
7:00 AM62 °FFog.7 mph98%30.07 "Hg1 mi
6:00 AM60 °FScattered clouds.5 mph96%30.07 "Hg12 mi
5:00 AM61 °FPassing clouds.5 mph95%30.08 "Hg16 mi
4:00 AM61 °FPassing clouds.5 mph95%30.09 "Hg12 mi
3:00 AM61 °FPassing clouds.5 mph96%30.10 "Hg12 mi
2:00 AM62 °FClear.3 mph92%30.10 "Hg12 mi
1:00 AM62 °FPassing clouds.3 mph93%30.11 "Hg12 mi
12:00 AM62 °FPassing clouds.2 mph90%30.11 "Hg12 mi
11:00 PM
Jul 23
61 °FPassing clouds.2 mph95%30.12 "Hg12 mi
10:00 PM62 °FFog.1 mph93%30.12 "Hg12 mi
9:00 PM65 °FPassing clouds.1 mph90%30.11 "Hg16 mi
8:00 PM67 °FPassing clouds.3 mph84%30.09 "Hg16 mi
7:00 PM69 °FScattered clouds.5 mph81%30.09 "Hg16 mi
6:00 PM69 °FScattered clouds.5 mph84%30.09 "Hg22 mi
Weather by CustomWeather, © 2014

See weather overviewHow to use our weather pages